Theta_e
306 306 306 306 306 303 302 303 303 302 303 303 303 301 300 302 302 302 301 301 301 303 305 307 310 316 322 323 323 324 326 326 327 326 324 322 321 320 319 318 318 317 315 314
307 309 306 305 306 306 306 306 305 305 305 304 303 302 301 299 300 301 302 300 301 303 304 304 307 314 321 323 323 323 324 326 326 326 324 322 322 321 319 317 317 317 316 314
306 305 306 306 306 306 305 305 305 306 305 304 302 304 303 301 300 300 301 302 302 302 302 304 306 311 320 322 323 322 324 324 325 325 324 323 321 320 319 318 317 316 316 315
305 304 304 304 307 305 305 304 305 305 305 306 302 302 300 300 300 301 302 303 303 303 302 303 304 307 318 322 323 322 322 323 324 324 324 323 321 320 319 318 316 316 316 315
304 302 304 305 303 303 303 302 303 303 302 301 300 300 299 299 300 301 301 300 302 302 303 303 304 305 315 320 322 322 322 322 323 323 323 322 321 320 320 319 316 315 315 315
304 303 303 302 302 302 302 302 302 301 301 302 301 301 300 299 300 300 301 299 299 300 301 302 303 304 308 317 320 321 322 322 322 322 322 322 321 319 319 318 316 314 314 313
303 304 303 303 304 303 303 302 304 303 302 302 299 300 300 299 299 299 299 299 299 299 300 301 301 301 305 315 317 319 321 321 322 322 322 321 321 319 319 317 316 315 314 312
300 304 297 295 303 303 302 302 303 302 301 299 298 299 299 299 300 301 301 299 299 299 300 301 302 301 304 310 316 318 319 320 321 321 321 321 320 319 319 318 316 315 315 313
297 297 294 295 295 298 304 302 302 303 301 301 298 298 299 300 299 299 299 299 300 300 299 301 301 301 304 307 314 317 318 319 320 321 321 321 320 319 319 318 316 315 314 314
296 294 293 294 296 298 302 303 305 303 305 304 300 299 299 299 299 299 299 299 300 299 299 299 299 300 304 307 313 316 317 318 319 319 320 320 319 319 318 318 317 316 314 313
293 294 294 296 297 293 293 300 306 304 304 304 303 302 300 299 300 300 299 298 299 299 302 302 301 301 305 307 310 315 316 317 318 318 319 320 319 318 318 317 317 316 315 313
296 296 295 294 292 292 293 296 300 301 303 304 304 303 302 301 302 300 301 301 300 302 301 301 301 302 303 304 307 312 316 316 317 317 318 319 319 318 316 317 317 317 315 314
293 287 284 290 289 296 298 298 299 297 299 302 304 303 301 299 299 300 299 298 300 301 302 302 302 303 303 304 305 306 313 316 316 317 317 317 318 317 316 316 316 316 315 314
295 291 290 290 291 291 292 292 294 296 297 298 299 298 297 297 298 298 299 299 298 298 300 300 301 302 302 304 305 306 307 312 316 316 316 316 317 317 315 315 315 315 315 314
292 289 294 293 293 293 294 295 295 295 295 297 296 297 297 297 298 298 298 298 299 299 299 299 300 300 300 301 304 306 307 308 312 315 315 315 315 317 316 314 314 314 314 313
295 291 295 291 295 295 295 294 294 294 294 296 298 298 297 298 296 296 297 298 299 300 299 299 298 299 299 300 303 305 305 307 309 311 313 314 314 315 316 314 313 313 313 313
293 289 287 291 293 293 287 292 292 292 292 293 294 294 294 294 295 297 299 299 300 300 298 298 298 298 298 300 303 304 306 305 307 309 310 311 312 313 314 313 312 312 312 311
293 289 288 289 285 288 291 290 290 291 291 292 292 293 294 294 296 296 296 300 300 300 300 297 297 297 299 302 302 303 304 305 305 307 308 308 310 311 312 312 311 311 311 309
294 294 293 294 281 290 291 291 291 291 291 293 293 294 294 294 295 298 296 299 300 300 298 297 298 299 300 301 302 302 303 303 304 304 305 306 307 308 308 309 309 309 308 307
294 294 294 288 289 286 291 291 290 291 293 293 293 295 297 297 300 301 301 300 299 299 300 299 300 299 300 301 302 301 302 302 302 303 304 305 305 305 305 306 307 306 306 305
290 294 294 294 293 291 291 291 292 292 292 294 295 295 294 295 296 297 299 299 299 297 298 299 299 297 299 301 300 300 301 300 303 304 304 304 304 303 303 303 304 305 303 303
289 288 290 289 292 292 291 291 292 292 294 294 294 293 294 295 296 298 299 299 298 298 296 297 297 296 300 301 300 299 299 302 303 303 303 303 303 302 301 301 301 301 301 298
291 291 290 291 291 291 291 293 293 292 293 293 293 293 294 296 297 297 297 296 297 297 297 296 296 296 299 300 300 298 300 301 302 302 302 302 301 300 300 299 297 296 296 295
290 290 292 292 292 292 292 292 292 291 292 292 292 293 293 295 295 294 293 295 295 296 297 295 294 294 294 298 299 301 300 300 301 299 298 298 297 297 297 296 295 295 294 294
291 291 291 292 292 292 290 291 292 291 290 291 292 291 292 293 293 293 293 293 293 294 295 294 293 293 293 296 297 298 299 299 296 295 294 295 295 294 293 293 293 293 294 294
290 292 292 293 292 292 292 292 291 290 291 291 291 291 291 291 292 292 292 292 293 293 294 293 293 293 294 295 296 296 296 296 294 293 293 293 292 292 292 292 292 293 293 293
Wind_Speed
6 5 11 17 19 13 8 10 10 5 8 6 12 12 9 8 7 8 9 9 9 10 10 23 32 38 39 41 40 45 44 43 38 35 35 36 39 33 34 40 39 38 37 37
3 18 13 8 13 14 14 15 19 14 12 10 11 16 9 8 8 9 11 10 9 8 9 10 17 27 36 41 44 42 44 43 45 40 39 35 36 33 31 35 40 40 39 41
14 8 14 13 15 16 16 17 13 13 6 6 8 22 16 9 8 10 13 15 14 15 12 12 13 24 33 38 41 43 48 48 47 42 33 28 26 27 28 36 43 45 42 42
14 15 16 12 16 13 16 7 12 14 9 8 4 12 9 4 10 13 17 19 20 19 16 14 12 12 30 36 43 46 45 45 46 42 37 35 34 30 35 34 34 41 44 43
7 6 7 16 19 9 10 5 10 7 4 2 8 5 5 7 12 17 15 15 18 19 19 19 17 16 28 37 38 41 41 41 42 42 39 37 36 36 31 32 33 40 45 46
19 15 9 0 8 6 6 6 2 3 2 5 22 9 17 11 13 13 20 11 11 11 12 14 16 24 26 32 35 37 39 41 43 44 45 41 42 37 33 34 34 37 39 44
12 24 23 13 13 17 8 2 5 3 5 15 10 8 24 7 8 6 9 11 10 8 7 7 10 10 18 28 33 33 36 37 43 45 45 43 43 41 39 37 37 36 35 39
7 4 8 13 10 14 16 11 8 9 8 14 10 10 17 14 21 23 19 11 9 10 7 7 8 9 18 26 35 38 38 37 38 42 43 44 43 39 38 36 37 40 40 40
2 4 9 7 6 4 4 14 14 12 15 9 5 13 15 11 13 11 11 9 12 12 9 10 9 8 15 21 31 38 38 40 41 44 44 43 42 39 39 38 37 36 37 37
6 4 4 5 6 5 6 4 11 9 14 20 8 11 13 5 9 8 8 10 13 11 11 8 8 9 17 19 30 34 37 42 41 42 43 43 43 41 39 36 34 37 36 36
5 4 4 5 3 11 7 5 5 6 11 12 14 11 15 12 15 18 15 9 15 11 6 4 4 4 5 9 15 30 30 32 33 36 37 39 40 39 38 38 35 35 35 37
8 3 3 9 16 13 13 5 1 5 5 8 16 16 8 12 16 10 19 12 9 8 5 4 4 3 3 4 5 13 24 29 32 33 35 36 36 37 36 37 36 34 35 36
5 2 2 8 6 3 4 4 5 3 8 9 7 8 13 6 9 16 9 9 10 9 7 6 3 4 4 7 10 11 12 26 30 32 32 31 34 35 36 35 35 36 35 36
10 4 7 7 9 3 6 11 10 6 6 14 11 18 27 15 15 21 22 18 10 10 8 8 6 6 6 10 11 12 15 15 24 31 32 31 34 36 36 34 35 35 36 35
7 7 7 13 16 14 13 17 17 12 17 15 21 19 29 22 17 15 24 19 18 18 13 11 7 7 7 8 12 13 15 17 20 26 30 29 30 34 33 32 32 34 35 36
7 7 7 10 13 11 15 16 20 22 18 18 20 22 26 22 18 15 16 25 18 21 11 9 8 7 8 9 13 15 18 19 21 24 29 31 33 33 31 31 32 33 34 35
6 6 3 12 4 1 7 23 16 17 18 16 17 19 25 24 22 19 13 18 23 19 14 10 10 9 9 15 18 20 23 23 24 27 28 29 30 32 32 30 31 32 33 33
4 6 4 5 4 2 18 9 12 16 20 19 19 19 25 25 19 19 18 18 24 24 20 11 9 8 16 20 20 21 23 23 26 28 29 29 30 31 33 29 29 29 31 33
14 8 4 6 6 10 19 18 5 6 18 18 18 20 22 21 22 20 21 20 20 23 14 8 13 19 21 21 22 23 23 25 27 27 28 32 32 31 32 31 28 27 29 28
15 13 9 3 6 9 23 18 8 5 11 28 10 12 14 18 14 12 17 20 19 17 17 12 21 23 20 27 25 21 23 24 22 27 32 33 32 32 31 31 29 27 28 27
5 7 16 14 12 8 13 13 5 5 19 10 14 14 13 12 12 23 22 20 22 10 13 20 19 14 23 32 25 19 21 20 32 32 32 30 30 33 33 32 32 32 27 29
8 7 7 6 8 14 8 9 10 11 8 13 13 14 14 18 16 17 16 16 16 16 11 18 8 11 26 26 22 17 16 32 29 27 27 28 29 31 30 31 30 31 30 27
6 9 7 10 7 7 6 8 8 5 9 19 15 13 12 16 15 18 15 20 18 15 14 17 10 11 19 21 24 14 25 27 23 24 26 26 27 28 28 29 27 25 27 22
5 4 7 14 16 15 16 20 17 6 10 19 20 11 13 17 14 19 16 15 16 16 16 18 9 7 8 14 18 24 22 19 23 23 23 24 25 24 25 26 28 23 23 21
5 4 8 7 13 12 14 18 22 13 12 12 17 12 15 17 17 16 15 17 17 14 16 16 8 6 10 15 16 18 18 20 20 19 20 20 21 23 22 22 24 23 24 28
5 12 7 12 17 15 19 22 13 11 10 14 17 18 23 18 15 12 18 18 16 16 15 11 12 9 14 13 14 15 19 24 23 17 18 18 19 19 20 19 15 19 23 24
Wind_Direction
199 201 211 203 204 229 241 256 256 257 283 302 279 277 263 263 264 257 258 255 243 233 245 234 220 203 193 191 186 189 190 197 192 188 188 193 200 200 196 201 203 202 200 198
181 233 225 232 227 236 239 247 256 277 274 271 282 277 270 245 248 245 245 258 272 273 259 250 232 203 188 186 188 189 192 191 197 197 197 195 197 201 201 197 203 207 203 203
227 215 210 217 230 236 238 240 255 258 273 274 314 288 281 253 245 265 253 250 248 244 244 254 245 196 195 187 188 188 194 193 197 200 194 193 190 197 197 199 203 204 207 206
246 244 249 245 234 226 251 257 270 268 260 263 166 279 238 250 248 246 252 251 248 245 238 231 240 200 189 195 193 193 194 192 195 198 196 196 189 193 203 203 200 200 209 209
231 338 237 228 239 248 265 277 252 249 231 235 242 261 287 235 259 254 257 244 250 241 239 236 234 224 204 196 196 195 194 192 193 194 199 197 200 204 205 202 197 199 206 213
258 276 288 346 320 318 347 257 296 281 175 245 241 210 270 236 250 239 247 251 254 256 246 238 231 219 204 203 200 196 192 193 193 193 201 203 205 200 198 197 195 196 199 205
279 248 257 266 289 286 293 267 241 251 206 243 156 202 246 246 219 220 257 265 272 254 249 244 239 226 218 196 196 198 196 193 194 195 200 206 209 208 203 200 199 197 198 199
347 11 358 356 243 251 231 215 216 214 224 260 159 219 237 220 234 260 267 259 287 280 253 240 247 231 221 197 196 195 195 198 195 196 202 208 214 212 212 208 207 205 205 205
300 276 326 322 304 310 260 227 235 265 271 280 229 273 281 263 262 258 260 268 266 270 242 253 253 236 240 207 198 198 198 199 196 197 201 205 211 211 212 212 208 207 207 206
208 261 264 306 301 297 232 293 238 225 246 240 235 248 252 298 276 299 295 266 275 276 275 255 241 247 249 236 209 204 201 197 199 199 201 204 209 211 213 212 209 210 208 204
158 180 295 345 20 304 314 323 249 232 229 245 255 252 247 252 256 278 290 299 296 273 260 285 290 293 266 251 226 208 203 203 202 201 202 205 207 211 214 215 215 210 212 204
204 197 241 235 271 253 237 285 293 335 344 270 242 252 255 316 304 286 293 293 287 241 237 268 277 283 272 262 238 225 209 202 203 200 202 205 207 209 213 214 215 213 209 207
193 240 10 320 323 81 117 184 207 224 277 292 307 261 274 302 284 291 307 295 267 243 209 220 226 231 259 259 257 242 221 214 208 202 202 204 206 207 215 215 213 211 209 207
147 194 172 225 250 336 304 291 302 296 275 298 288 293 293 306 314 316 309 315 302 294 284 237 220 219 234 246 245 245 239 220 212 208 202 203 206 210 214 213 213 210 208 205
148 209 203 237 256 273 281 291 294 282 270 258 275 273 276 282 283 282 292 289 293 294 267 236 224 229 234 243 241 237 239 234 219 212 209 208 210 211 213 214 212 210 207 207
185 237 196 256 248 273 283 280 275 271 266 256 257 266 275 278 281 274 259 282 277 279 278 278 271 256 235 233 233 235 237 233 226 220 216 216 213 209 209 209 207 205 206 205
182 176 125 257 133 312 311 243 260 267 268 270 274 272 282 286 276 272 264 259 271 268 265 251 245 230 221 226 229 227 234 233 224 225 224 217 214 210 210 209 204 205 204 201
210 159 162 257 67 240 260 268 240 250 265 272 268 271 269 273 285 283 283 266 263 262 257 248 238 241 241 241 240 245 240 232 227 224 223 222 213 213 213 209 207 206 204 199
218 205 210 216 198 269 292 271 188 251 281 283 265 275 286 294 294 298 275 263 253 255 250 225 222 231 248 250 253 238 231 225 222 221 221 222 216 212 214 210 209 204 199 195
208 209 202 172 191 211 254 274 196 240 286 270 307 325 345 342 321 310 314 317 291 261 254 251 250 252 249 260 255 232 218 212 212 218 221 222 217 213 208 207 204 200 198 196
156 202 223 227 235 256 256 271 117 233 255 356 323 324 311 295 283 293 300 307 311 265 258 260 259 241 243 257 242 212 212 210 223 225 224 221 217 214 214 207 204 199 192 195
165 162 201 222 233 250 236 269 223 247 315 304 296 301 301 295 287 293 304 313 318 313 300 281 253 240 248 244 219 209 212 228 229 223 220 218 214 212 208 205 200 198 194 188
226 201 205 186 210 227 217 225 242 266 273 285 285 290 290 294 301 303 311 307 305 311 305 297 270 260 250 227 215 202 223 226 220 212 212 209 207 205 204 197 188 182 184 181
251 213 228 250 249 256 265 277 276 236 259 278 284 276 297 291 293 294 296 296 298 309 303 292 277 273 268 238 225 226 233 223 199 194 194 193 189 189 194 193 188 179 180 180
209 161 221 254 258 269 262 259 269 267 264 268 277 277 276 287 287 288 291 299 292 281 287 279 266 261 267 262 236 224 217 200 183 176 174 175 175 173 174 182 182 183 189 186
180 240 236 251 256 249 263 269 285 266 266 265 279 285 284 280 275 275 284 286 280 284 284 265 260 253 266 252 228 212 201 188 171 164 169 169 165 165 167 167 167 190 196 193